| time (UTC) | temp C | wind direction | speed KPH | gust KPH | rain 1hr cm | rain 24hr cm | rain mn cm | humidity % | barometer mb |
| 20260510230711 | 20 | 62 | 0.0 | 0.0 | 0.00 | 0.00 | 0.00 | 29 | 1019.2 |
| 20260510230207 | 20 | 64 | 0.0 | 1.6 | 0.00 | 0.00 | 0.00 | 32 | 1019.2 |
| 20260510225704 | 20 | 62 | 0.0 | 0.0 | 0.00 | 0.00 | 0.00 | 31 | 1019.2 |
| 20260510225159 | 20 | 63 | 0.0 | 3.2 | 0.00 | 0.00 | 0.00 | 32 | 1019.3 |
| 20260510224656 | 20 | 60 | 0.0 | 1.6 | 0.00 | 0.00 | 0.00 | 29 | 1019.2 |
| 20260510224152 | 20 | 60 | 0.0 | 1.6 | 0.00 | 0.00 | 0.00 | 34 | 1019.2 |
| 20260510223650 | 21 | 65 | 1.6 | 1.6 | 0.00 | 0.00 | 0.00 | 33 | 1019.1 |
| 20260510223147 | 21 | 59 | 0.0 | 3.2 | 0.00 | 0.00 | 0.00 | 32 | 1019.2 |
| 20260510222644 | 21 | 58 | 0.0 | 4.8 | 0.00 | 0.00 | 0.00 | 30 | 1019.1 |
| 20260510222141 | 21 | 61 | 0.0 | 1.6 | 0.00 | 0.00 | 0.00 | 31 | 1019.1 |
| 20260510221636 | 22 | 63 | 0.0 | 1.6 | 0.00 | 0.00 | 0.00 | 30 | 1019.3 |
| 20260510221133 | 22 | 55 | 1.6 | 3.2 | 0.00 | 0.00 | 0.00 | 27 | 1019.1 |
| 20260510220630 | 21 | 51 | 0.0 | 3.2 | 0.00 | 0.00 | 0.00 | 33 | 1019.3 |
| 20260510220125 | 21 | 54 | 0.0 | 0.0 | 0.00 | 0.00 | 0.00 | 36 | 1019.0 |
| 20260510215623 | 21 | 57 | 0.0 | 1.6 | 0.00 | 0.00 | 0.00 | 32 | 1019.1 |
| 20260510215121 | 21 | 55 | 0.0 | 0.0 | 0.00 | 0.00 | 0.00 | 33 | 1019.2 |
| 20260510214618 | 21 | 55 | 0.0 | 0.0 | 0.00 | 0.00 | 0.00 | 30 | 1019.4 |
| 20260510214114 | 21 | 59 | 0.0 | 3.2 | 0.00 | 0.00 | 0.00 | 30 | 1019.2 |
| 20260510213611 | 21 | 52 | 0.0 | 1.6 | 0.00 | 0.00 | 0.00 | 31 | 1019.1 |
| 20260510213107 | 21 | 25 | 1.6 | 1.6 | 0.00 | 0.00 | 0.00 | 33 | 1019.2 |
| 20260510212604 | 21 | 59 | 0.0 | 1.6 | 0.00 | 0.00 | 0.00 | 29 | 1019.3 |
| 20260510212102 | 22 | 57 | 0.0 | 1.6 | 0.00 | 0.00 | 0.00 | 30 | 1019.3 |
| 20260510211558 | 22 | 59 | 0.0 | 0.0 | 0.00 | 0.00 | 0.00 | 29 | 1019.2 |
| 20260510211058 | 23 | 59 | 0.0 | 1.6 | 0.00 | 0.00 | 0.00 | 29 | 1019.6 |
| 20260510210555 | 22 | 55 | 0.0 | 1.6 | 0.00 | 0.00 | 0.00 | 29 | 1019.5 |
| 20260510210050 | 22 | 57 | 0.0 | 0.0 | 0.00 | 0.00 | 0.00 | 31 | 1019.6 |
| 20260510205549 | 22 | 55 | 0.0 | 1.6 | 0.00 | 0.00 | 0.00 | 29 | 1019.3 |
| 20260510205045 | 22 | 56 | 0.0 | 0.0 | 0.00 | 0.00 | 0.00 | 33 | 1019.5 |
| 20260510204542 | 22 | 56 | 0.0 | 1.6 | 0.00 | 0.00 | 0.00 | 30 | 1019.3 |
| 20260510204038 | 22 | 54 | 0.0 | 1.6 | 0.00 | 0.00 | 0.00 | 30 | 1019.3 |
| 20260510203535 | 22 | 55 | 0.0 | 3.2 | 0.00 | 0.00 | 0.00 | 30 | 1019.2 |
| 20260510203032 | 22 | 55 | 1.6 | 3.2 | 0.00 | 0.00 | 0.00 | 29 | 1019.2 |
| 20260510202531 | 22 | 62 | 0.0 | 1.6 | 0.00 | 0.00 | 0.00 | 31 | 1019.2 |
| 20260510202028 | 22 | 63 | 0.0 | 1.6 | 0.00 | 0.00 | 0.00 | 31 | 1019.3 |
| 20260510201525 | 22 | 39 | 0.0 | 1.6 | 0.00 | 0.00 | 0.00 | 28 | 1019.4 |
| 20260510201021 | 22 | 59 | 0.0 | 4.8 | 0.00 | 0.00 | 0.00 | 32 | 1019.4 |
| 20260510200517 | 22 | 56 | 0.0 | 1.6 | 0.00 | 0.00 | 0.00 | 30 | 1019.2 |
| 20260510200015 | 22 | 54 | 0.0 | 1.6 | 0.00 | 0.00 | 0.00 | 33 | 1019.5 |
| 20260510195513 | 21 | 55 | 0.0 | 0.0 | 0.00 | 0.00 | 0.00 | 35 | 1019.3 |
| 20260510195008 | 21 | 55 | 0.0 | 0.0 | 0.00 | 0.00 | 0.00 | 32 | 1019.2 |
| 20260510194504 | 21 | 57 | 1.6 | 6.4 | 0.00 | 0.00 | 0.00 | 32 | 1019.4 |
| 20260510194001 | 21 | 54 | 0.0 | 1.6 | 0.00 | 0.00 | 0.00 | 33 | 1019.3 |
| 20260510193500 | 20 | 57 | 0.0 | 1.6 | 0.00 | 0.00 | 0.00 | 34 | 1019.3 |
| 20260510192956 | 21 | 62 | 1.6 | 1.6 | 0.00 | 0.00 | 0.00 | 34 | 1019.3 |
| 20260510192451 | 21 | 57 | 0.0 | 3.2 | 0.00 | 0.00 | 0.00 | 33 | 1019.4 |
| 20260510191948 | 20 | 47 | 1.6 | 3.2 | 0.00 | 0.00 | 0.00 | 36 | 1019.4 |
| 20260510191444 | 20 | 57 | 1.6 | 1.6 | 0.00 | 0.00 | 0.00 | 31 | 1019.5 |
| 20260510190941 | 19 | 57 | 0.0 | 1.6 | 0.00 | 0.00 | 0.00 | 34 | 1019.3 |
| 20260510190439 | 19 | 61 | 0.0 | 6.4 | 0.00 | 0.00 | 0.00 | 35 | 1019.4 |
| 20260510185935 | 19 | 55 | 0.0 | 1.6 | 0.00 | 0.00 | 0.00 | 31 | 1019.3 |
| 20260510185433 | 20 | 58 | 0.0 | 3.2 | 0.00 | 0.00 | 0.00 | 33 | 1019.2 |
| 20260510184929 | 20 | 46 | 1.6 | 3.2 | 0.00 | 0.00 | 0.00 | 35 | 1019.2 |
| 20260510184427 | 21 | 47 | 0.0 | 3.2 | 0.00 | 0.00 | 0.00 | 33 | 1019.3 |
| 20260510183925 | 21 | 47 | 3.2 | 3.2 | 0.00 | 0.00 | 0.00 | 30 | 1019.3 |
| 20260510183423 | 21 | 57 | 0.0 | 0.0 | 0.00 | 0.00 | 0.00 | 33 | 1019.2 |
| 20260510182918 | 21 | 59 | 0.0 | 1.6 | 0.00 | 0.00 | 0.00 | 30 | 1019.1 |
| 20260510182414 | 20 | 49 | 1.6 | 1.6 | 0.00 | 0.00 | 0.00 | 34 | 1019.0 |
| 20260510181910 | 20 | 54 | 0.0 | 4.8 | 0.00 | 0.00 | 0.00 | 34 | 1019.0 |
| 20260510181408 | 20 | 54 | 1.6 | 3.2 | 0.00 | 0.00 | 0.00 | 35 | 1018.9 |
| 20260510180904 | 20 | 56 | 0.0 | 3.2 | 0.00 | 0.00 | 0.00 | 40 | 1018.8 |
| 20260510180401 | 19 | 64 | 0.0 | 1.6 | 0.00 | 0.00 | 0.00 | 42 | 1018.9 |
| 20260510175858 | 18 | 52 | 1.6 | 1.6 | 0.00 | 0.00 | 0.00 | 36 | 1019.0 |
| 20260510175354 | 18 | 56 | 0.0 | 1.6 | 0.00 | 0.00 | 0.00 | 43 | 1019.2 |
| 20260510174850 | 18 | 55 | 0.0 | 1.6 | 0.00 | 0.00 | 0.00 | 41 | 1019.1 |
| 20260510174348 | 18 | 50 | 0.0 | 1.6 | 0.00 | 0.00 | 0.00 | 37 | 1019.4 |
| 20260510173844 | 18 | 50 | 0.0 | 3.2 | 0.00 | 0.00 | 0.00 | 38 | 1019.1 |
| 20260510173340 | 18 | 63 | 0.0 | 1.6 | 0.00 | 0.00 | 0.00 | 40 | 1019.3 |
| 20260510172836 | 18 | 57 | 0.0 | 1.6 | 0.00 | 0.00 | 0.00 | 40 | 1019.5 |
| 20260510172333 | 18 | 52 | 0.0 | 1.6 | 0.00 | 0.00 | 0.00 | 39 | 1019.4 |
| 20260510171829 | 18 | 64 | 0.0 | 3.2 | 0.00 | 0.00 | 0.00 | 39 | 1019.2 |
| 20260510171326 | 18 | 50 | 0.0 | 3.2 | 0.00 | 0.00 | 0.00 | 43 | 1019.4 |
| 20260510170823 | 18 | 45 | 0.0 | 3.2 | 0.00 | 0.00 | 0.00 | 46 | 1019.5 |
| 20260510170319 | 18 | 48 | 0.0 | 1.6 | 0.00 | 0.00 | 0.00 | 46 | 1019.4 |
| 20260510165814 | 17 | 48 | 0.0 | 3.2 | 0.00 | 0.00 | 0.00 | 46 | 1019.6 |
| 20260510165312 | 17 | 52 | 0.0 | 1.6 | 0.00 | 0.00 | 0.00 | 51 | 1019.5 |
| 20260510164809 | 17 | 49 | 0.0 | 0.0 | 0.00 | 0.00 | 0.00 | 48 | 1019.4 |
| 20260510164307 | 17 | 50 | 0.0 | 1.6 | 0.00 | 0.00 | 0.00 | 47 | 1019.4 |
| 20260510163806 | 17 | 51 | 0.0 | 0.0 | 0.00 | 0.00 | 0.00 | 49 | 1019.5 |
| 20260510163302 | 17 | 47 | 0.0 | 0.0 | 0.00 | 0.00 | 0.00 | 46 | 1019.5 |
| 20260510162802 | 17 | 52 | 1.6 | 1.6 | 0.00 | 0.00 | 0.00 | 45 | 1019.6 |
| 20260510162259 | 17 | 54 | 0.0 | 3.2 | 0.00 | 0.00 | 0.00 | 45 | 1019.3 |
| 20260510161755 | 18 | 53 | 0.0 | 1.6 | 0.00 | 0.00 | 0.00 | 43 | 1019.7 |
| 20260510161251 | 18 | 48 | 0.0 | 1.6 | 0.00 | 0.00 | 0.00 | 48 | 1019.7 |
| 20260510160748 | 17 | 53 | 0.0 | 3.2 | 0.00 | 0.00 | 0.00 | 48 | 1019.7 |
| 20260510160244 | 17 | 52 | 0.0 | 1.6 | 0.00 | 0.00 | 0.00 | 48 | 1019.8 |
| 20260510155740 | 17 | 35 | 1.6 | 4.8 | 0.00 | 0.00 | 0.00 | 48 | 1019.7 |
| 20260510155236 | 16 | 53 | 1.6 | 3.2 | 0.00 | 0.00 | 0.00 | 50 | 1019.7 |
| 20260510154732 | 16 | 49 | 0.0 | 1.6 | 0.00 | 0.00 | 0.00 | 51 | 1019.5 |
| 20260510154228 | 16 | 47 | 0.0 | 0.0 | 0.00 | 0.00 | 0.00 | 52 | 1019.5 |
| 20260510153723 | 16 | 58 | 0.0 | 1.6 | 0.00 | 0.00 | 0.00 | 51 | 1019.5 |
| 20260510153219 | 16 | 51 | 0.0 | 0.0 | 0.00 | 0.00 | 0.00 | 51 | 1019.4 |
| 20260510152716 | 17 | 55 | 0.0 | 3.2 | 0.00 | 0.00 | 0.00 | 50 | 1019.1 |
| 20260510152212 | 16 | 49 | 0.0 | 1.6 | 0.00 | 0.00 | 0.00 | 49 | 1019.0 |
| 20260510151709 | 16 | 55 | 0.0 | 1.6 | 0.00 | 0.00 | 0.00 | 51 | 1019.0 |
| 20260510151208 | 16 | 54 | 0.0 | 3.2 | 0.00 | 0.00 | 0.00 | 50 | 1019.0 |
| 20260510150703 | 16 | 50 | 0.0 | 0.0 | 0.00 | 0.00 | 0.00 | 51 | 1018.8 |
| 20260510150158 | 16 | 46 | 0.0 | 1.6 | 0.00 | 0.00 | 0.00 | 50 | 1018.8 |
| 20260510145655 | 16 | 43 | 0.0 | 3.2 | 0.00 | 0.00 | 0.00 | 49 | 1019.0 |
| 20260510145151 | 17 | 59 | 1.6 | 1.6 | 0.00 | 0.00 | 0.00 | 48 | 1018.9 |
| 20260510144647 | 16 | 55 | 0.0 | 3.2 | 0.00 | 0.00 | 0.00 | 50 | 1019.2 |
| 20260510144144 | 16 | 43 | 1.6 | 9.7 | 0.00 | 0.00 | 0.00 | 51 | 1018.6 |
| 20260510143639 | 16 | 44 | 0.0 | 1.6 | 0.00 | 0.00 | 0.00 | 51 | 1018.4 |
| 20260510143136 | 16 | 54 | 0.0 | 1.6 | 0.00 | 0.00 | 0.00 | 50 | 1018.6 |
| 20260510142632 | 16 | 38 | 0.0 | 1.6 | 0.00 | 0.00 | 0.00 | 50 | 1018.3 |
| 20260510142129 | 16 | 60 | 1.6 | 3.2 | 0.00 | 0.00 | 0.00 | 56 | 1018.3 |
| 20260510141626 | 15 | 52 | 0.0 | 1.6 | 0.00 | 0.00 | 0.00 | 57 | 1018.2 |
| 20260510141124 | 15 | 330 | 0.0 | 3.2 | 0.00 | 0.00 | 0.00 | 59 | 1018.2 |
| 20260510140620 | 15 | 60 | 0.0 | 1.6 | 0.00 | 0.00 | 0.00 | 57 | 1017.6 |
| 20260510140119 | 15 | 40 | 0.0 | 1.6 | 0.00 | 0.00 | 0.00 | 59 | 1018.0 |
| 20260510135615 | 15 | 47 | 0.0 | 1.6 | 0.00 | 0.00 | 0.00 | 60 | 1018.1 |
| 20260510135111 | 15 | 48 | 0.0 | 1.6 | 0.00 | 0.00 | 0.00 | 62 | 1018.2 |
| 20260510134608 | 14 | 48 | 0.0 | 1.6 | 0.00 | 0.00 | 0.00 | 64 | 1018.2 |
| 20260510134106 | 14 | 50 | 0.0 | 1.6 | 0.00 | 0.00 | 0.00 | 64 | 1018.1 |
| 20260510133602 | 14 | 47 | 0.0 | 1.6 | 0.00 | 0.00 | 0.00 | 61 | 1018.2 |
| 20260510133057 | 14 | 52 | 0.0 | 0.0 | 0.00 | 0.00 | 0.00 | 64 | 1018.1 |
| 20260510132554 | 13 | 49 | 0.0 | 1.6 | 0.00 | 0.00 | 0.00 | 62 | 1018.1 |
| 20260510132051 | 13 | 50 | 0.0 | 1.6 | 0.00 | 0.00 | 0.00 | 63 | 1018.1 |
| 20260510131549 | 13 | 51 | 0.0 | 1.6 | 0.00 | 0.00 | 0.00 | 66 | 1018.1 |
| 20260510131046 | 13 | 50 | 0.0 | 0.0 | 0.00 | 0.00 | 0.00 | 66 | 1017.9 |
| 20260510130542 | 13 | 47 | 0.0 | 1.6 | 0.00 | 0.00 | 0.00 | 71 | 1018.0 |
| 20260510130040 | 13 | 50 | 0.0 | 0.0 | 0.00 | 0.00 | 0.00 | 70 | 1017.7 |
| 20260510125536 | 13 | 51 | 0.0 | 1.6 | 0.00 | 0.00 | 0.00 | 70 | 1017.8 |
| 20260510125032 | 13 | 55 | 0.0 | 1.6 | 0.00 | 0.00 | 0.00 | 74 | 1017.8 |
| 20260510124529 | 13 | 52 | 0.0 | 3.2 | 0.00 | 0.00 | 0.00 | 81 | 1017.5 |
| 20260510124026 | 13 | 49 | 0.0 | 1.6 | 0.00 | 0.00 | 0.00 | 77 | 1017.4 |
| 20260510123521 | 13 | 51 | 0.0 | 1.6 | 0.00 | 0.00 | 0.00 | 79 | 1017.2 |
| 20260510123018 | 12 | 48 | 0.0 | 1.6 | 0.00 | 0.00 | 0.00 | 78 | 1017.1 |
| 20260510122513 | 12 | 50 | 0.0 | 0.0 | 0.00 | 0.00 | 0.00 | 80 | 1017.0 |
| 20260510122010 | 12 | 51 | 0.0 | 0.0 | 0.00 | 0.00 | 0.00 | 81 | 1017.0 |
| 20260510121507 | 12 | 49 | 0.0 | 0.0 | 0.00 | 0.00 | 0.00 | 81 | 1017.0 |
| 20260510121004 | 12 | 52 | 0.0 | 0.0 | 0.00 | 0.00 | 0.00 | 82 | 1016.8 |
| 20260510120501 | 12 | 48 | 0.0 | 0.0 | 0.00 | 0.00 | 0.00 | 84 | 1016.9 |
| 20260510115957 | 12 | 49 | 0.0 | 0.0 | 0.00 | 0.00 | 0.00 | 84 | 1016.7 |
| 20260510115454 | 12 | 50 | 0.0 | 0.0 | 0.00 | 0.00 | 0.00 | 85 | 1016.6 |
| 20260510114950 | 12 | 52 | 0.0 | 0.0 | 0.00 | 0.00 | 0.00 | 85 | 1016.9 |
| 20260510114447 | 12 | 52 | 0.0 | 0.0 | 0.00 | 0.00 | 0.00 | 85 | 1016.3 |
| 20260510113943 | 12 | 55 | 0.0 | 0.0 | 0.00 | 0.00 | 0.00 | 85 | 1016.3 |
| 20260510113438 | 12 | 45 | 0.0 | 1.6 | 0.00 | 0.00 | 0.00 | 86 | 1016.3 |
| 20260510112936 | 12 | 50 | 0.0 | 1.6 | 0.00 | 0.00 | 0.00 | 87 | 1015.9 |
| 20260510112433 | 12 | 54 | 0.0 | 1.6 | 0.00 | 0.00 | 0.00 | 88 | 1015.7 |
| 20260510111929 | 12 | 51 | 0.0 | 0.0 | 0.00 | 0.00 | 0.00 | 88 | 1015.5 |
| 20260510111425 | 12 | 55 | 0.0 | 1.6 | 0.00 | 0.00 | 0.00 | 88 | 1015.7 |
| 20260510110921 | 12 | 50 | 0.0 | 0.0 | 0.00 | 0.00 | 0.00 | 90 | 1015.4 |
| 20260510110418 | 12 | 52 | 0.0 | 0.0 | 0.00 | 0.00 | 0.00 | 90 | 1015.3 |
| 20260510105914 | 12 | 51 | 0.0 | 0.0 | 0.00 | 0.00 | 0.00 | 91 | 1015.2 |
| 20260510105415 | 12 | 48 | 0.0 | 0.0 | 0.00 | 0.00 | 0.00 | 91 | 1015.0 |
| 20260510104910 | 12 | 51 | 0.0 | 0.0 | 0.00 | 0.00 | 0.00 | 92 | 1015.0 |
| 20260510104407 | 13 | 48 | 0.0 | 0.0 | 0.00 | 0.00 | 0.00 | 92 | 1015.0 |
| 20260510103904 | 13 | 48 | 0.0 | 0.0 | 0.00 | 0.00 | 0.00 | 93 | 1014.9 |
| 20260510103401 | 13 | 52 | 0.0 | 0.0 | 0.00 | 0.00 | 0.00 | 93 | 1015.0 |
| 20260510102856 | 13 | 49 | 0.0 | 0.0 | 0.00 | 0.00 | 0.00 | 94 | 1014.8 |
| 20260510102352 | 13 | 51 | 0.0 | 0.0 | 0.00 | 0.00 | 0.00 | 94 | 1014.9 |
| 20260510101850 | 13 | 51 | 0.0 | 0.0 | 0.00 | 0.00 | 0.00 | 95 | 1014.6 |
| 20260510101348 | 13 | 50 | 0.0 | 0.0 | 0.00 | 0.00 | 0.00 | 95 | 1014.7 |
| 20260510100844 | 13 | 53 | 0.0 | 0.0 | 0.00 | 0.00 | 0.00 | 95 | 1014.6 |
| 20260510100341 | 13 | 53 | 0.0 | 0.0 | 0.00 | 0.00 | 0.00 | 95 | 1014.6 |
| 20260510095838 | 13 | 53 | 0.0 | 0.0 | 0.00 | 0.00 | 0.00 | 95 | 1014.7 |
| 20260510095333 | 13 | 54 | 0.0 | 0.0 | 0.00 | 0.00 | 0.00 | 95 | 1014.5 |
| 20260510094832 | 13 | 54 | 0.0 | 0.0 | 0.00 | 0.00 | 0.00 | 95 | 1014.6 |
| 20260510094327 | 13 | 54 | 0.0 | 0.0 | 0.00 | 0.00 | 0.00 | 95 | 1014.5 |
| 20260510093824 | 13 | 54 | 0.0 | 0.0 | 0.00 | 0.00 | 0.00 | 95 | 1014.6 |
| 20260510093320 | 13 | 54 | 0.0 | 0.0 | 0.00 | 0.00 | 0.00 | 95 | 1014.4 |
| 20260510092817 | 13 | 54 | 0.0 | 0.0 | 0.00 | 0.00 | 0.00 | 95 | 1014.5 |
| 20260510092312 | 13 | 54 | 0.0 | 0.0 | 0.00 | 0.00 | 0.00 | 95 | 1014.2 |
| 20260510091808 | 13 | 54 | 0.0 | 0.0 | 0.00 | 0.00 | 0.00 | 95 | 1014.2 |
| 20260510091306 | 13 | 51 | 0.0 | 0.0 | 0.00 | 0.00 | 0.00 | 95 | 1014.1 |
| 20260510090802 | 13 | 51 | 0.0 | 0.0 | 0.00 | 0.00 | 0.00 | 95 | 1014.2 |
| 20260510090259 | 13 | 50 | 0.0 | 0.0 | 0.00 | 0.00 | 0.00 | 95 | 1013.8 |
| 20260510085755 | 13 | 51 | 0.0 | 0.0 | 0.00 | 0.00 | 0.00 | 95 | 1013.9 |
| 20260510085249 | 13 | 51 | 0.0 | 0.0 | 0.00 | 0.00 | 0.00 | 95 | 1013.7 |
| 20260510084745 | 13 | 51 | 0.0 | 0.0 | 0.00 | 0.00 | 0.00 | 95 | 1013.7 |
| 20260510084242 | 13 | 51 | 0.0 | 0.0 | 0.00 | 0.00 | 0.00 | 95 | 1013.5 |
| 20260510083739 | 13 | 51 | 0.0 | 0.0 | 0.00 | 0.00 | 0.00 | 95 | 1013.6 |
| 20260510083236 | 13 | 51 | 0.0 | 0.0 | 0.00 | 0.00 | 0.00 | 94 | 1013.4 |
| 20260510082731 | 13 | 51 | 0.0 | 0.0 | 0.00 | 0.00 | 0.00 | 94 | 1013.3 |
| 20260510082228 | 14 | 51 | 0.0 | 0.0 | 0.00 | 0.00 | 0.00 | 95 | 1013.2 |
| 20260510081728 | 14 | 51 | 0.0 | 0.0 | 0.00 | 0.00 | 0.00 | 94 | 1013.1 |
| 20260510081224 | 14 | 51 | 0.0 | 0.0 | 0.00 | 0.00 | 0.00 | 94 | 1013.2 |
| 20260510080719 | 14 | 51 | 0.0 | 0.0 | 0.00 | 0.00 | 0.00 | 94 | 1012.9 |
| 20260510080215 | 14 | 51 | 0.0 | 0.0 | 0.00 | 0.00 | 0.00 | 94 | 1012.8 |
| 20260510075712 | 14 | 51 | 0.0 | 0.0 | 0.00 | 0.00 | 0.00 | 94 | 1012.8 |
| 20260510075210 | 15 | 51 | 0.0 | 0.0 | 0.00 | 0.00 | 0.00 | 94 | 1012.7 |
| 20260510074706 | 15 | 51 | 0.0 | 0.0 | 0.00 | 0.00 | 0.00 | 94 | 1012.4 |
| 20260510074202 | 15 | 51 | 0.0 | 0.0 | 0.00 | 0.00 | 0.00 | 94 | 1012.3 |
| 20260510073659 | 15 | 51 | 0.0 | 0.0 | 0.00 | 0.00 | 0.00 | 94 | 1012.5 |
| 20260510073155 | 15 | 50 | 0.0 | 0.0 | 0.00 | 0.00 | 0.00 | 94 | 1012.5 |
| 20260510072651 | 15 | 50 | 0.0 | 0.0 | 0.00 | 0.00 | 0.00 | 94 | 1012.5 |
| 20260510072148 | 15 | 50 | 0.0 | 0.0 | 0.00 | 0.00 | 0.00 | 94 | 1012.4 |
| 20260510071644 | 15 | 50 | 0.0 | 0.0 | 0.00 | 0.00 | 0.00 | 94 | 1012.4 |
| 20260510071141 | 15 | 53 | 0.0 | 0.0 | 0.00 | 0.00 | 0.00 | 94 | 1012.0 |
| 20260510070639 | 15 | 57 | 0.0 | 0.0 | 0.00 | 0.00 | 0.00 | 94 | 1012.0 |
| 20260510070136 | 15 | 50 | 0.0 | 0.0 | 0.00 | 0.00 | 0.00 | 94 | 1012.2 |
| 20260510065631 | 15 | 50 | 0.0 | 0.0 | 0.00 | 0.00 | 0.00 | 94 | 1012.5 |
| 20260510065128 | 15 | 51 | 0.0 | 0.0 | 0.00 | 0.00 | 0.00 | 94 | 1012.6 |
| 20260510064624 | 15 | 51 | 0.0 | 0.0 | 0.00 | 0.00 | 0.00 | 94 | 1012.5 |
| 20260510064121 | 15 | 51 | 0.0 | 0.0 | 0.00 | 0.00 | 0.00 | 94 | 1012.7 |
| 20260510063618 | 15 | 51 | 0.0 | 0.0 | 0.00 | 0.00 | 0.00 | 94 | 1012.4 |
| 20260510063115 | 15 | 51 | 0.0 | 0.0 | 0.00 | 0.00 | 0.00 | 94 | 1012.2 |
| 20260510062610 | 15 | 48 | 0.0 | 1.6 | 0.00 | 0.00 | 0.00 | 94 | 1012.4 |
| 20260510062106 | 15 | 50 | 0.0 | 0.0 | 0.00 | 0.00 | 0.00 | 94 | 1012.2 |
| 20260510061603 | 15 | 49 | 0.0 | 0.0 | 0.00 | 0.00 | 0.00 | 94 | 1012.4 |
| 20260510061100 | 15 | 49 | 0.0 | 0.0 | 0.00 | 0.00 | 0.00 | 94 | 1012.2 |
| 20260510060555 | 15 | 49 | 0.0 | 0.0 | 0.00 | 0.00 | 0.00 | 94 | 1012.4 |
| 20260510060053 | 15 | 50 | 0.0 | 1.6 | 0.00 | 0.00 | 0.00 | 94 | 1012.3 |
| 20260510055548 | 15 | 48 | 0.0 | 1.6 | 0.00 | 0.00 | 0.00 | 93 | 1012.2 |
| 20260510055047 | 15 | 50 | 0.0 | 0.0 | 0.00 | 0.00 | 0.00 | 94 | 1011.9 |
| 20260510054542 | 16 | 50 | 0.0 | 1.6 | 0.00 | 0.00 | 0.00 | 94 | 1011.8 |
| 20260510054037 | 16 | 49 | 1.6 | 3.2 | 0.00 | 0.00 | 0.00 | 94 | 1011.5 |
| 20260510053532 | 16 | 51 | 0.0 | 0.0 | 0.00 | 0.00 | 0.00 | 94 | 1011.5 |
| 20260510053029 | 16 | 48 | 0.0 | 1.6 | 0.00 | 0.00 | 0.00 | 93 | 1011.8 |
| 20260510052525 | 16 | 47 | 0.0 | 0.0 | 0.00 | 0.00 | 0.00 | 93 | 1011.8 |
| 20260510052021 | 16 | 52 | 0.0 | 1.6 | 0.00 | 0.00 | 0.00 | 93 | 1011.7 |
| 20260510051517 | 16 | 49 | 0.0 | 1.6 | 0.00 | 0.00 | 0.00 | 93 | 1011.8 |
| 20260510051014 | 16 | 56 | 0.0 | 3.2 | 0.00 | 0.00 | 0.00 | 94 | 1012.0 |
| 20260510050511 | 15 | 49 | 1.6 | 1.6 | 0.00 | 0.00 | 0.00 | 94 | 1011.5 |
| 20260510050008 | 16 | 43 | 0.0 | 0.0 | 0.18 | 0.20 | 0.20 | 93 | 1011.0 |
| 20260510045505 | 16 | 51 | 0.0 | 0.0 | 0.18 | 0.20 | 0.20 | 93 | 1011.0 |
| 20260510045001 | 16 | 46 | 0.0 | 0.0 | 0.13 | 0.18 | 0.18 | 93 | 1011.4 |
| 20260510044458 | 16 | 43 | 0.0 | 0.0 | 0.13 | 0.18 | 0.18 | 93 | 1011.4 |
| 20260510043955 | 16 | 50 | 0.0 | 0.0 | 0.18 | 0.15 | 0.15 | 93 | 1011.4 |
| 20260510043451 | 16 | 61 | 0.0 | 0.0 | 0.30 | 0.15 | 0.15 | 92 | 1011.4 |
| 20260510042949 | 16 | 48 | 0.0 | 0.0 | 0.30 | 0.13 | 0.13 | 92 | 1011.9 |
| 20260510042445 | 16 | 58 | 0.0 | 1.6 | 0.18 | 0.10 | 0.10 | 92 | 1012.0 |
| 20260510041941 | 16 | 49 | 0.0 | 1.6 | 0.00 | 0.08 | 0.08 | 92 | 1012.3 |
| 20260510041438 | 16 | 48 | 0.0 | 0.0 | 0.13 | 0.08 | 0.08 | 92 | 1011.9 |
| 20260510040936 | 16 | 50 | 0.0 | 0.0 | 0.13 | 0.08 | 0.08 | 92 | 1011.6 |
| 20260510040432 | 16 | 53 | 0.0 | 1.6 | 0.00 | 0.05 | 0.05 | 92 | 1011.5 |
| 20260510035928 | 16 | 49 | 0.0 | 1.6 | 0.00 | 0.05 | 0.05 | 92 | 1011.4 |
| 20260510035425 | 16 | 49 | 1.6 | 3.2 | 0.00 | 0.05 | 0.05 | 91 | 1011.6 |
| 20260510034925 | 16 | 54 | 0.0 | 11.3 | 0.00 | 0.05 | 0.05 | 91 | 1012.0 |
| 20260510034424 | 16 | 11 | 1.6 | 1.6 | 0.18 | 0.05 | 0.05 | 90 | 1012.2 |
| 20260510033919 | 16 | 47 | 1.6 | 1.6 | 0.18 | 0.05 | 0.05 | 90 | 1011.8 |
| 20260510033416 | 16 | 55 | 0.0 | 3.2 | 0.00 | 0.03 | 0.03 | 89 | 1011.9 |
| 20260510032913 | 16 | 45 | 1.6 | 3.2 | 0.00 | 0.03 | 0.03 | 88 | 1012.1 |
| 20260510032409 | 16 | 69 | 1.6 | 3.2 | 0.13 | 0.03 | 0.03 | 87 | 1011.9 |
| 20260510031905 | 17 | 55 | 3.2 | 4.8 | 0.13 | 0.03 | 0.03 | 86 | 1012.1 |
| 20260510031401 | 17 | 64 | 1.6 | 9.7 | 0.00 | 0.00 | 0.00 | 82 | 1011.8 |
| 20260510030900 | 19 | 51 | 6.4 | 11.3 | 0.00 | 0.00 | 0.00 | 71 | 1011.6 |
| 20260510030357 | 21 | 53 | 4.8 | 11.3 | 0.00 | 0.00 | 0.00 | 60 | 1011.3 |
| 20260510025855 | 21 | 44 | 0.0 | 0.0 | 0.00 | 0.00 | 0.00 | 55 | 1009.6 |
| 20260510025352 | 21 | 44 | 0.0 | 0.0 | 0.00 | 0.00 | 0.00 | 53 | 1009.3 |
| 20260510024849 | 21 | 44 | 0.0 | 0.0 | 0.00 | 0.00 | 0.00 | 52 | 1009.4 |
| 20260510024346 | 21 | 44 | 0.0 | 0.0 | 0.00 | 0.00 | 0.00 | 53 | 1009.3 |
| 20260510023842 | 21 | 44 | 0.0 | 0.0 | 0.00 | 0.00 | 0.00 | 53 | 1009.1 |
| 20260510023338 | 21 | 44 | 0.0 | 0.0 | 0.00 | 0.00 | 0.00 | 51 | 1008.9 |
| 20260510022836 | 21 | 44 | 0.0 | 0.0 | 0.00 | 0.00 | 0.00 | 52 | 1009.0 |
| 20260510022335 | 21 | 44 | 0.0 | 0.0 | 0.00 | 0.00 | 0.00 | 51 | 1008.9 |
| 20260510021834 | 21 | 44 | 0.0 | 0.0 | 0.00 | 0.00 | 0.00 | 51 | 1008.9 |
| 20260510021333 | 21 | 44 | 0.0 | 0.0 | 0.00 | 0.00 | 0.00 | 51 | 1009.0 |
| 20260510020828 | 21 | 44 | 0.0 | 0.0 | 0.00 | 0.00 | 0.00 | 51 | 1008.6 |
| 20260510020328 | 21 | 44 | 0.0 | 0.0 | 0.00 | 0.00 | 0.00 | 49 | 1008.7 |
| 20260510015825 | 21 | 44 | 0.0 | 0.0 | 0.00 | 0.00 | 0.00 | 48 | 1008.5 |
| 20260510015321 | 21 | 44 | 0.0 | 0.0 | 0.00 | 0.00 | 0.00 | 48 | 1008.5 |
| 20260510014816 | 21 | 44 | 0.0 | 0.0 | 0.00 | 0.00 | 0.00 | 48 | 1008.2 |
| 20260510014313 | 21 | 44 | 0.0 | 0.0 | 0.00 | 0.00 | 0.00 | 47 | 1008.3 |
| 20260510013809 | 21 | 44 | 0.0 | 0.0 | 0.00 | 0.00 | 0.00 | 47 | 1008.3 |
| 20260510013306 | 21 | 44 | 0.0 | 0.0 | 0.00 | 0.00 | 0.00 | 46 | 1008.1 |
| 20260510012801 | 22 | 44 | 0.0 | 0.0 | 0.00 | 0.00 | 0.00 | 45 | 1008.1 |
| 20260510012301 | 22 | 44 | 0.0 | 0.0 | 0.00 | 0.00 | 0.00 | 45 | 1008.0 |
| 20260510011801 | 22 | 44 | 0.0 | 0.0 | 0.00 | 0.00 | 0.00 | 45 | 1008.1 |
| 20260510011256 | 22 | 44 | 0.0 | 0.0 | 0.00 | 0.00 | 0.00 | 44 | 1008.0 |
| 20260510010753 | 23 | 44 | 0.0 | 0.0 | 0.00 | 0.00 | 0.00 | 43 | 1008.1 |
| 20260510010250 | 23 | 44 | 0.0 | 0.0 | 0.00 | 0.00 | 0.00 | 43 | 1008.1 |
| 20260510005747 | 23 | 44 | 0.0 | 0.0 | 0.00 | 0.00 | 0.00 | 41 | 1008.0 |
| 20260510005243 | 23 | 44 | 0.0 | 0.0 | 0.00 | 0.00 | 0.00 | 42 | 1008.0 |
| 20260510004741 | 24 | 44 | 0.0 | 0.0 | 0.00 | 0.00 | 0.00 | 41 | 1008.1 |
| 20260510004239 | 25 | 44 | 0.0 | 0.0 | 0.00 | 0.00 | 0.00 | 41 | 1007.7 |
| 20260510003736 | 25 | 44 | 0.0 | 0.0 | 0.00 | 0.00 | 0.00 | 39 | 1007.9 |
| 20260510003232 | 26 | 44 | 0.0 | 0.0 | 0.00 | 0.00 | 0.00 | 38 | 1007.6 |
| 20260510002731 | 26 | 44 | 0.0 | 0.0 | 0.00 | 0.00 | 0.00 | 36 | 1007.7 |
| 20260510002229 | 26 | 44 | 0.0 | 0.0 | 0.00 | 0.00 | 0.00 | 37 | 1007.9 |
| 20260510001725 | 26 | 45 | 0.0 | 0.0 | 0.00 | 0.00 | 0.00 | 38 | 1007.8 |
| 20260510001224 | 25 | 44 | 0.0 | 0.0 | 0.00 | 0.00 | 0.00 | 38 | 1007.8 |
| 20260510000719 | 25 | 44 | 0.0 | 0.0 | 0.00 | 0.00 | 0.00 | 40 | 1007.6 |
| 20260510000218 | 25 | 50 | 0.0 | 0.0 | 0.00 | 0.00 | 0.00 | 39 | 1007.9 |
| 20260509235714 | 25 | 50 | 0.0 | 0.0 | 0.00 | 0.00 | 0.00 | 40 | 1007.6 |
| 20260509235210 | 25 | 50 | 0.0 | 0.0 | 0.00 | 0.00 | 0.00 | 39 | 1007.6 |
| 20260509234706 | 26 | 50 | 0.0 | 0.0 | 0.00 | 0.00 | 0.00 | 39 | 1007.8 |
| 20260509234203 | 26 | 44 | 0.0 | 1.6 | 0.00 | 0.00 | 0.00 | 37 | 1007.8 |
| 20260509233701 | 26 | 47 | 0.0 | 0.0 | 0.00 | 0.00 | 0.00 | 38 | 1007.7 |
| 20260509233159 | 26 | 44 | 0.0 | 1.6 | 0.00 | 0.00 | 0.00 | 37 | 1007.8 |
| 20260509232655 | 26 | 50 | 0.0 | 0.0 | 0.00 | 0.00 | 0.00 | 37 | 1007.8 |
| 20260509232151 | 27 | 55 | 0.0 | 1.6 | 0.00 | 0.00 | 0.00 | 35 | 1007.7 |
| 20260509231648 | 27 | 55 | 0.0 | 1.6 | 0.00 | 0.00 | 0.00 | 34 | 1007.5 |